Marshfield, MA

11:32 AM EST on January 18, 2017 (GMT -0500)
Marshfield

Weather History for KGHG - December, 2012

Change the Weather History Date:

Friday, December 21, 2012

  Actual Average (KPYM) Record (KPYM)
Temperature  
Mean Temperature 47 °F -  
Max Temperature 53 °F 39 °F 61 °F (1957)
Min Temperature 41 °F 22 °F -3 °F (1955)
Degree Days  
Heating Degree Days 18    
Moisture  
Dew Point 41 °F    
Average Humidity 84    
Maximum Humidity 100    
Minimum Humidity 70    
Precipitation  
Precipitation 0.30 in - - ()
Sea Level Pressure  
Sea Level Pressure 29.47 in    
Wind  
Wind Speed 13 mph (SE)    
Max Wind Speed 26 mph    
Max Gust Speed 38 mph    
Visibility 8 miles    
Events Rain    
Averages and records for this station are not official NWS values.
T = Trace of Precipitation, MM = Missing Value Source: NWS Daily Summary

Daily Weather History Graph

Daily Weather History Graph

Search for Another Location

Airport or City:

Trip Planner

Search our weather history database for the weather conditions in past years. The results will help you decide how hot, cold, wet, or windy it might be!

Date:

Astronomy

Dec. 21, 2012 Rise Set
Actual Time 7:07 AM EST 4:14 PM EST
Civil Twilight 6:36 AM EST 4:46 PM EST
Nautical Twilight 6:00 AM EST 5:21 PM EST
Astronomical Twilight 5:26 AM EST 5:55 PM EST
Moon 12:03 PM EST (12/21) 12:47 AM EST (12/21)
Length of Visible Light 10h 09m
Length of Day
9h 06m
Waxing Gibbous, 64% of the Moon is Illuminated
Dec 21
Waxing Gibbous
Dec 28
Full
Jan 4
Last Quarter
Jan 11
New
Jan 18
First Quarter

Hourly Weather History & Observations

Time (EST) Temp. Windchill Dew Point Humidity Pressure Visibility Wind Dir Wind Speed Gust Speed Precip Events Conditions
12:15 AM 41.0 °F 39.0 °F 37.4 °F 87% 30.05 in 10.0 mi SE 3.5 mph - N/A   Overcast
12:35 AM 41.0 °F 39.0 °F 37.4 °F 87% 30.05 in 10.0 mi SSE 3.5 mph - N/A   Overcast
12:55 AM 41.0 °F 38.0 °F 39.2 °F 93% 30.03 in 1.5 mi ESE 4.6 mph - N/A   Overcast
1:15 AM 41.0 °F 35.8 °F 39.2 °F 93% 30.00 in 10.0 mi East 8.1 mph - N/A   Overcast
1:35 AM 42.8 °F 38.0 °F 39.2 °F 87% 29.97 in 10.0 mi East 8.1 mph - N/A   Mostly Cloudy
1:55 AM 42.8 °F 38.6 °F 39.2 °F 87% 29.97 in 10.0 mi East 6.9 mph - N/A   Mostly Cloudy
2:15 AM 42.8 °F 38.0 °F 39.2 °F 87% 29.96 in 5.0 mi East 8.1 mph - N/A   Mostly Cloudy
2:55 AM 42.8 °F 36.6 °F 41.0 °F 93% 29.93 in 10.0 mi East 11.5 mph 17.3 mph N/A   Overcast
3:15 AM 42.8 °F 37.0 °F 41.0 °F 93% 29.91 in 10.0 mi East 10.4 mph 21.9 mph N/A   Overcast
3:35 AM 44.6 °F 38.4 °F 41.0 °F 87% 29.91 in 10.0 mi East 12.7 mph 18.4 mph N/A   Overcast
3:55 AM 44.6 °F 37.8 °F 41.0 °F 87% 29.88 in 10.0 mi East 15.0 mph 20.7 mph N/A   Overcast
4:15 AM 44.6 °F 38.1 °F 41.0 °F 87% 29.87 in 10.0 mi ESE 13.8 mph 23.0 mph N/A   Overcast
4:35 AM 44.6 °F 37.2 °F 41.0 °F 87% 29.84 in 10.0 mi ESE 17.3 mph 26.5 mph N/A   Overcast
4:55 AM 44.6 °F 36.4 °F 41.0 °F 87% 29.82 in 10.0 mi ESE 20.7 mph 28.8 mph N/A   Overcast
5:15 AM 44.6 °F 35.5 °F 39.2 °F 81% 29.76 in 10.0 mi East 25.3 mph 36.8 mph N/A   Mostly Cloudy
5:35 AM 44.6 °F 37.2 °F 39.2 °F 81% 29.79 in 10.0 mi East 17.3 mph 26.5 mph N/A   Mostly Cloudy
5:55 AM 44.6 °F 36.6 °F 39.2 °F 81% 29.76 in 10.0 mi East 19.6 mph 31.1 mph N/A   Overcast
6:15 AM 44.6 °F 36.9 °F 39.2 °F 81% 29.75 in 10.0 mi ESE 18.4 mph 32.2 mph N/A   Overcast
6:35 AM 46.4 °F 38.3 °F 39.2 °F 76% 29.71 in 10.0 mi East 23.0 mph 29.9 mph N/A   Overcast
6:55 AM 46.4 °F 39.5 °F 39.2 °F 76% 29.69 in 10.0 mi East 17.3 mph 38.0 mph N/A   Overcast
7:15 AM 46.4 °F 38.7 °F 41.0 °F 81% 29.70 in 10.0 mi ESE 20.7 mph 27.6 mph N/A   Overcast
7:35 AM 46.4 °F 37.7 °F 41.0 °F 81% 29.66 in 10.0 mi East 26.5 mph 32.2 mph N/A   Overcast
7:55 AM 46.4 °F 37.9 °F 42.8 °F 87% 29.66 in 10.0 mi East 25.3 mph 36.8 mph N/A   Overcast
8:15 AM 46.4 °F 38.1 °F 42.8 °F 87% 29.65 in 10.0 mi ESE 24.2 mph 34.5 mph N/A   Overcast
8:35 AM 46.4 °F 38.3 °F 42.8 °F 87% 29.63 in 10.0 mi East 23.0 mph 33.4 mph N/A Rain Light Rain
8:55 AM 46.4 °F 38.5 °F 44.6 °F 93% 29.61 in 2.5 mi East 21.9 mph 33.4 mph 0.01 in Rain Light Rain
9:15 AM 46.4 °F 39.5 °F 44.6 °F 93% 29.58 in 2.0 mi East 17.3 mph 31.1 mph 0.02 in Rain Light Rain
9:35 AM 46.4 °F 38.1 °F 44.6 °F 93% 29.54 in 2.0 mi East 24.2 mph 32.2 mph 0.04 in Rain Light Rain
9:55 AM 48.2 °F - 46.4 °F 93% 29.54 in 5.0 mi ESE 20.7 mph 32.2 mph 0.04 in   Overcast
10:15 AM 48.2 °F - 46.4 °F 93% 29.51 in 5.0 mi East 24.2 mph 33.4 mph N/A Rain Light Rain
10:35 AM 48.2 °F - 46.4 °F 93% 29.45 in 2.5 mi East 24.2 mph 31.1 mph 0.01 in Rain Rain
10:55 AM 48.2 °F - 46.4 °F 93% 29.41 in 2.5 mi East 26.5 mph 35.7 mph 0.04 in   Light Drizzle
11:15 AM 50.0 °F - 48.2 °F 94% 29.38 in 4.0 mi East 26.5 mph 35.7 mph N/A   Light Drizzle
11:35 AM 51.8 °F - 48.2 °F 88% 29.34 in 2.5 mi East 24.2 mph 33.4 mph N/A Rain Light Rain
11:55 AM 51.8 °F - 48.2 °F 88% 29.31 in 3.0 mi East 26.5 mph 38.0 mph 0.01 in Rain Light Rain
12:15 PM 51.8 °F - 48.2 °F 88% 29.27 in 1.2 mi ESE 20.7 mph 35.7 mph 0.02 in Rain Light Rain
12:35 PM 51.8 °F - 50.0 °F 94% 29.24 in 1.2 mi ESE 21.9 mph 34.5 mph 0.04 in Rain Light Rain
12:55 PM 51.8 °F - 50.0 °F 94% 29.20 in 1.8 mi ESE 23.0 mph 38.0 mph 0.05 in Rain Light Rain
1:15 PM 51.8 °F - 51.8 °F 100% 29.17 in 2.0 mi ESE 25.3 mph 38.0 mph 0.01 in Rain Light Rain
1:35 PM 51.8 °F - 51.8 °F 100% 29.15 in 1.0 mi ESE 24.2 mph 36.8 mph 0.04 in Rain Rain
1:55 PM 53.6 °F - 51.8 °F 94% 29.15 in 1.0 mi SE 23.0 mph 38.0 mph 0.13 in Rain Light Rain
2:15 PM 53.6 °F - 51.8 °F 94% 29.17 in 2.5 mi SSE 15.0 mph 28.8 mph 0.02 in   Light Drizzle
2:35 PM 53.6 °F - 51.8 °F 94% 29.16 in 10.0 mi South 11.5 mph 21.9 mph 0.02 in   Overcast
2:55 PM 53.6 °F - 48.2 °F 82% 29.16 in 10.0 mi South 12.7 mph 19.6 mph 0.02 in   Overcast
3:15 PM 53.6 °F - 46.4 °F 77% 29.15 in 10.0 mi South 11.5 mph 20.7 mph N/A   Overcast
3:35 PM 53.6 °F - 44.6 °F 72% 29.15 in 10.0 mi SSE 11.5 mph 17.3 mph N/A   Scattered Clouds
3:55 PM 51.8 °F - 44.6 °F 76% 29.15 in 10.0 mi South 10.4 mph 19.6 mph N/A   Clear
4:15 PM 51.8 °F - 42.8 °F 71% 29.16 in 10.0 mi SSW 10.4 mph 19.6 mph N/A   Mostly Cloudy
4:35 PM 51.8 °F - 42.8 °F 71% 29.16 in 10.0 mi South 11.5 mph 16.1 mph N/A   Overcast
4:55 PM 50.0 °F - 41.0 °F 71% 29.18 in 10.0 mi South 12.7 mph 25.3 mph N/A   Overcast
5:15 PM 48.2 °F - 39.2 °F 71% 29.19 in 10.0 mi SSW 8.1 mph 24.2 mph N/A   Mostly Cloudy
5:35 PM 46.4 °F 42.4 °F 39.2 °F 76% 29.19 in 10.0 mi SSW 8.1 mph 16.1 mph N/A   Scattered Clouds
5:55 PM 46.4 °F 41.9 °F 39.2 °F 76% 29.20 in 10.0 mi South 9.2 mph - N/A   Partly Cloudy
6:15 PM 44.6 °F 39.7 °F 39.2 °F 81% 29.20 in 10.0 mi South 9.2 mph - N/A   Partly Cloudy
6:35 PM 44.6 °F 40.7 °F 39.2 °F 81% 29.20 in 10.0 mi South 6.9 mph 17.3 mph N/A   Partly Cloudy
6:55 PM 44.6 °F 39.2 °F 39.2 °F 81% 29.21 in 10.0 mi South 10.4 mph 17.3 mph N/A   Mostly Cloudy
7:15 PM 44.6 °F 39.7 °F 39.2 °F 81% 29.21 in 10.0 mi South 9.2 mph 20.7 mph N/A   Mostly Cloudy
7:35 PM 44.6 °F 39.7 °F 37.4 °F 76% 29.21 in 10.0 mi South 9.2 mph - N/A   Mostly Cloudy
7:55 PM 44.6 °F 38.1 °F 37.4 °F 76% 29.22 in 10.0 mi SSW 13.8 mph 21.9 mph N/A   Mostly Cloudy
8:15 PM 44.6 °F 40.2 °F 35.6 °F 71% 29.22 in 10.0 mi South 8.1 mph 20.7 mph N/A   Overcast
8:35 PM 44.6 °F 39.2 °F 35.6 °F 71% 29.22 in 10.0 mi SSW 10.4 mph 19.6 mph N/A   Mostly Cloudy
8:55 PM 42.8 °F 38.0 °F 35.6 °F 76% 29.24 in 5.0 mi SSW 8.1 mph 24.2 mph N/A   Haze
9:15 PM 41.0 °F 35.8 °F 35.6 °F 81% 29.24 in 10.0 mi SSW 8.1 mph - N/A   Overcast
9:35 PM 42.8 °F 36.6 °F 35.6 °F 76% 29.25 in 10.0 mi SSW 11.5 mph 20.7 mph N/A   Overcast
9:55 PM 41.0 °F 34.7 °F 35.6 °F 81% 29.26 in 10.0 mi SSW 10.4 mph 17.3 mph N/A   Overcast
10:15 PM 41.0 °F 36.4 °F 33.8 °F 76% 29.26 in 10.0 mi SSW 6.9 mph 18.4 mph N/A   Overcast
10:35 PM 41.0 °F 35.2 °F 33.8 °F 76% 29.26 in 10.0 mi SSW 9.2 mph 18.4 mph N/A   Overcast
10:55 PM 41.0 °F 35.8 °F 33.8 °F 76% 29.27 in 10.0 mi SSW 8.1 mph - N/A   Mostly Cloudy
11:15 PM 41.0 °F 34.7 °F 32.0 °F 70% 29.27 in 10.0 mi SSW 10.4 mph 16.1 mph N/A   Mostly Cloudy
11:35 PM 41.0 °F 34.3 °F 32.0 °F 70% 29.27 in 10.0 mi SSW 11.5 mph 17.3 mph N/A   Overcast
11:55 PM 41.0 °F 35.2 °F 32.0 °F 70% 29.26 in 10.0 mi SW 9.2 mph 16.1 mph N/A   Overcast